Weather in Velikie Luky

Russia / Pskov Oblast     56°20′32″N   30°31′19″E
temp.,
°C
wind,
m/s
gust,
m/s
humid.,
%
clouds,
%
prec.,
mm/h
press.,
hPa
HPBL,
m
7 may, fri
fri700:00+5sw5118925 0.1 1005735
03:00+3ssw413945 0.1 1006494
06:00+2ssw41293100 0.0 1006383
09:00+8sw610705 0.1 10061174
12:00+11sw6955100 0.4 10061830
15:00+10sw5759100 0.6 10071703
18:00+8s3581100 0.3 1006866
21:00+7ese2696100 2.3 1005306
8 may, sat
sat800:00+7sse51095100 2.4 1003940
03:00+6wnw3597100 3.0 1003438
06:00+4nw379899 0.2 1005364
09:00+5w3590100 0.2 1006594
12:00+6nw567699 0.0 10071009
15:00+9wnw5654100 0.0 10081560
18:00+7nw6866100 0.1 10091145
21:00+4nw4107660 0.1 1011465
9 may, sun
sun900:00+2nw411905 0.0 1013373
03:00+1nw410900 0.0 1016273
06:00+1wnw27890 0.0 1018168
09:00+7nw47610 0.0 1019808
12:00+11wnw464535 0.0 10201876
15:00+12wnw45397 0.0 10211892
18:00+12wsw24495 0.0 10211910
21:00+7ssw347356 0.0 102353
10 may, mon
mon1000:00+5ssw367616 0.0 102489
03:00+4ssw388197 0.0 1026148
06:00+5s4107755 0.0 1026221
09:00+10ssw486347 0.0 1027467
12:00+15ssw455117 0.0 10271084
15:00+17ssw45505 0.0 10271321
18:00+16ssw35605 0.0 1027992
21:00+11s358283 0.0 102873
11 may, tue
tue1100:00+8s378915 0.0 1028117
03:00+7s379056 0.0 1029126
06:00+7sse388910 0.0 1029156
09:00+13sse35647 0.0 1029418
12:00+17sse45495 0.0 10281149
15:00+19sse454517 0.0 10271328
18:00+19se355566 0.0 1026600
21:00+12se367497 0.0 1026100